TimeCDT,TemperatureF,Dew PointF,Humidity,Sea Level PressureIn,VisibilityMPH,Wind Direction,Wind SpeedMPH,Gust SpeedMPH,PrecipitationIn,Events,Conditions,WindDirDegrees,DateUTC
12:15 AM,62.6,42.8,48,30.18,10.0,SE,9.2,-,N/A,,Overcast,140,2013-05-25 05:15:00
12:35 AM,62.6,42.8,48,30.17,10.0,SE,6.9,-,N/A,,Overcast,140,2013-05-25 05:35:00
12:55 AM,62.6,42.8,48,30.16,10.0,SE,8.1,-,N/A,,Overcast,140,2013-05-25 05:55:00
1:15 AM,62.6,42.8,48,30.15,10.0,SE,5.8,-,N/A,,Overcast,140,2013-05-25 06:15:00
1:35 AM,60.8,42.8,52,30.15,10.0,SE,4.6,-,N/A,,Overcast,140,2013-05-25 06:35:00
1:55 AM,60.8,42.8,52,30.14,10.0,SSE,8.1,-,N/A,,Overcast,150,2013-05-25 06:55:00
2:15 AM,60.8,42.8,52,30.13,10.0,SE,9.2,-,N/A,,Overcast,140,2013-05-25 07:15:00
2:35 AM,60.8,42.8,52,30.12,10.0,SSE,9.2,16.1,N/A,,Overcast,150,2013-05-25 07:35:00
2:55 AM,60.8,42.8,52,30.12,10.0,SSE,9.2,-,N/A,,Overcast,150,2013-05-25 07:55:00
3:15 AM,60.8,44.6,55,30.12,10.0,SSE,8.1,-,N/A,Rain,Light Rain,150,2013-05-25 08:15:00
3:35 AM,60.8,44.6,55,30.12,10.0,SSE,10.4,18.4,N/A,,Overcast,160,2013-05-25 08:35:00
3:55 AM,57.2,46.4,67,30.10,10.0,SSE,9.2,-,N/A,Rain,Light Rain,160,2013-05-25 08:55:00
4:15 AM,57.2,44.6,63,30.09,10.0,SSE,9.2,-,N/A,,Mostly Cloudy,160,2013-05-25 09:15:00
4:35 AM,57.2,44.6,63,30.09,10.0,SSE,9.2,-,N/A,,Scattered Clouds,160,2013-05-25 09:35:00
4:55 AM,59.0,46.4,63,30.07,10.0,SSE,9.2,-,N/A,,Scattered Clouds,160,2013-05-25 09:55:00
5:15 AM,59.0,46.4,63,30.05,10.0,SSE,11.5,17.3,N/A,,Scattered Clouds,160,2013-05-25 10:15:00
5:35 AM,60.8,46.4,59,30.05,10.0,SSE,8.1,-,N/A,,Mostly Cloudy,160,2013-05-25 10:35:00
5:55 AM,60.8,48.2,63,30.07,10.0,South,9.2,-,N/A,Rain,Light Rain,170,2013-05-25 10:55:00
6:15 AM,60.8,50.0,68,30.09,10.0,South,6.9,-,N/A,Rain,Light Rain,170,2013-05-25 11:15:00
6:35 AM,57.2,51.8,82,30.10,10.0,South,6.9,-,0.03,Rain,Light Rain,180,2013-05-25 11:35:00
6:55 AM,57.2,53.6,88,30.12,10.0,West,3.5,-,0.04,Rain,Rain,260,2013-05-25 11:55:00
7:15 AM,55.4,55.4,100,30.09,10.0,East,4.6,-,0.05,Rain,Light Rain,90,2013-05-25 12:15:00
7:35 AM,55.4,53.6,94,30.08,10.0,SW,6.9,-,0.07,Rain,Light Rain,230,2013-05-25 12:35:00
7:55 AM,57.2,55.4,94,30.09,10.0,NW,4.6,-,0.07,,Scattered Clouds,310,2013-05-25 12:55:00
8:15 AM,57.2,55.4,94,30.10,10.0,NE,3.5,-,N/A,,Scattered Clouds,40,2013-05-25 13:15:00
8:35 AM,59.0,55.4,88,30.10,10.0,NE,3.5,-,N/A,,Scattered Clouds,50,2013-05-25 13:35:00
8:55 AM,60.8,57.2,88,30.10,10.0,ESE,6.9,-,N/A,,Mostly Cloudy,110,2013-05-25 13:55:00
9:15 AM,60.8,57.2,88,30.11,10.0,ESE,5.8,-,N/A,,Overcast,110,2013-05-25 14:15:00
9:35 AM,60.8,55.4,82,30.11,10.0,East,4.6,-,N/A,,Overcast,80,2013-05-25 14:35:00
9:55 AM,59.0,55.4,88,30.13,10.0,ENE,4.6,-,N/A,,Overcast,70,2013-05-25 14:55:00
10:15 AM,59.0,55.4,88,30.13,10.0,East,4.6,-,N/A,,Mostly Cloudy,80,2013-05-25 15:15:00
10:35 AM,60.8,55.4,82,30.11,10.0,ESE,8.1,-,N/A,,Mostly Cloudy,110,2013-05-25 15:35:00
10:55 AM,60.8,55.4,82,30.06,10.0,ESE,8.1,-,N/A,,Clear,120,2013-05-25 15:55:00
11:15 AM,62.6,57.2,82,30.02,10.0,SE,11.5,16.1,N/A,,Clear,130,2013-05-25 16:15:00
11:35 AM,64.4,57.2,77,30.09,10.0,NNE,12.7,-,N/A,,Scattered Clouds,20,2013-05-25 16:35:00
11:55 AM,64.4,57.2,77,30.06,10.0,East,8.1,-,N/A,,Scattered Clouds,80,2013-05-25 16:55:00
12:15 PM,64.4,57.2,77,30.09,10.0,ENE,10.4,-,N/A,,Scattered Clouds,60,2013-05-25 17:15:00
12:35 PM,64.4,57.2,77,30.09,10.0,East,9.2,-,N/A,,Scattered Clouds,90,2013-05-25 17:35:00
12:55 PM,64.4,57.2,77,30.07,10.0,ESE,9.2,16.1,N/A,,Clear,120,2013-05-25 17:55:00
1:15 PM,64.4,57.2,77,30.07,10.0,SE,10.4,-,N/A,,Scattered Clouds,130,2013-05-25 18:15:00
1:35 PM,66.2,59.0,78,30.07,10.0,SE,6.9,-,N/A,,Scattered Clouds,130,2013-05-25 18:35:00
1:55 PM,66.2,59.0,78,30.06,10.0,SE,11.5,16.1,N/A,,Scattered Clouds,140,2013-05-25 18:55:00
2:15 PM,68.0,59.0,73,30.05,10.0,SE,11.5,18.4,N/A,,Scattered Clouds,130,2013-05-25 19:15:00
2:35 PM,66.2,57.2,73,30.05,10.0,SE,5.8,-,N/A,,Clear,130,2013-05-25 19:35:00
2:55 PM,69.8,59.0,68,30.05,10.0,SE,4.6,-,N/A,,Scattered Clouds,140,2013-05-25 19:55:00
3:15 PM,68.0,59.0,73,30.05,10.0,SE,4.6,-,N/A,,Scattered Clouds,130,2013-05-25 20:15:00
3:35 PM,68.0,59.0,73,30.04,10.0,SE,6.9,-,N/A,,Scattered Clouds,140,2013-05-25 20:35:00
3:55 PM,71.6,60.8,69,30.04,10.0,ESE,5.8,-,N/A,,Scattered Clouds,120,2013-05-25 20:55:00
4:15 PM,73.4,60.8,65,30.04,10.0,SE,9.2,-,N/A,,Scattered Clouds,130,2013-05-25 21:15:00
4:35 PM,73.4,60.8,65,30.04,10.0,SSE,8.1,-,N/A,,Scattered Clouds,150,2013-05-25 21:35:00
4:55 PM,75.2,62.6,65,30.02,10.0,SSE,9.2,-,N/A,,Scattered Clouds,150,2013-05-25 21:55:00
5:15 PM,75.2,62.6,65,30.02,7.0,SE,8.1,-,N/A,,Clear,140,2013-05-25 22:15:00
5:35 PM,75.2,62.6,65,30.02,7.0,SSE,8.1,-,N/A,,Clear,150,2013-05-25 22:35:00
5:55 PM,75.2,60.8,61,30.02,10.0,SSE,8.1,-,N/A,,Scattered Clouds,150,2013-05-25 22:55:00
6:15 PM,75.2,62.6,65,30.02,7.0,SSE,6.9,-,N/A,,Scattered Clouds,150,2013-05-25 23:15:00
6:35 PM,73.4,60.8,65,30.01,7.0,SE,8.1,-,N/A,,Scattered Clouds,130,2013-05-25 23:35:00
6:55 PM,73.4,60.8,65,30.00,10.0,ESE,8.1,-,N/A,,Clear,120,2013-05-25 23:55:00
7:15 PM,73.4,60.8,65,30.00,10.0,ESE,9.2,17.3,N/A,,Scattered Clouds,120,2013-05-26 00:15:00
7:35 PM,71.6,60.8,69,30.01,10.0,ESE,9.2,-,N/A,,Mostly Cloudy,120,2013-05-26 00:35:00
7:55 PM,71.6,60.8,69,30.01,10.0,SE,8.1,-,N/A,,Mostly Cloudy,130,2013-05-26 00:55:00
8:15 PM,69.8,60.8,73,30.00,10.0,ESE,9.2,-,N/A,,Scattered Clouds,120,2013-05-26 01:15:00
8:35 PM,69.8,60.8,73,30.01,10.0,ESE,8.1,-,N/A,,Scattered Clouds,110,2013-05-26 01:35:00
8:55 PM,68.0,60.8,78,30.02,10.0,ESE,4.6,-,N/A,,Scattered Clouds,110,2013-05-26 01:55:00
9:15 PM,66.2,60.8,83,30.03,10.0,ESE,5.8,-,N/A,,Mostly Cloudy,110,2013-05-26 02:15:00
9:35 PM,66.2,60.8,83,30.04,10.0,East,6.9,-,N/A,,Mostly Cloudy,100,2013-05-26 02:35:00
9:55 PM,66.2,60.8,83,30.05,10.0,Calm,Calm,-,N/A,,Mostly Cloudy,0,2013-05-26 02:55:00
10:15 PM,64.4,60.8,88,30.06,10.0,East,5.8,-,N/A,,Mostly Cloudy,100,2013-05-26 03:15:00
10:35 PM,64.4,59.0,83,30.07,10.0,East,6.9,-,N/A,,Scattered Clouds,90,2013-05-26 03:35:00
10:55 PM,62.6,59.0,88,30.08,10.0,ESE,5.8,-,N/A,,Clear,110,2013-05-26 03:55:00
11:15 PM,62.6,57.2,82,30.07,10.0,ESE,8.1,-,N/A,,Clear,110,2013-05-26 04:15:00
11:35 PM,62.6,57.2,82,30.07,10.0,ESE,6.9,-,N/A,,Mostly Cloudy,110,2013-05-26 04:35:00
11:55 PM,62.6,57.2,82,30.06,10.0,ESE,6.9,-,N/A,,Mostly Cloudy,120,2013-05-26 04:55:00